BREEZE-M DEB, 32030

Orbit data source: Space-Track

BREEZE-M DEB, 32030 is space debris in HEO originally from a launch on Tue, 28 Feb 2006 UTC launched from the Tyuratam Missile And Space Complex (TTMTR). Debris objects in space refer to the collection of defunct objects orbiting the Earth. Examples of debris include non-operational satellites, rocket bodies, and fragments generated from explosions, collisions, or faulty payload assembly.

Loading next visibility...
Identifier
32030, 2006-006H
Orbit
HEO
Country
Flag of CISCIS
Related business
Manufacturer
Khrunichev
Mission
Spacecraft
Bus & Motor
Unknown
Mass
Unknown
Launch date (UTC)
2006-02-28 (20 years ago)
Launch vehicle
Unknown
Launch site
Tyuratam Missile And Space Complex (TTMTR)
Object type
Payload
Rocket body
Debris
Shape & HBR
Unknown shape, 0.7 m
Radar Cross Section
Medium (>0.1 m² and <1 m²)

Expand to show TLE details & history
Last TLE update: 5 days ago

TLE from 5 days ago
0 BREEZE-M DEB
1 32030U 06006H   26158.10559791  .00009936  00000-0  35528-2 0  9991
2 32030  51.7673 353.9839 4715531  38.3792 347.2994  6.01956657390495
Epoch: 2026-06-07T02:32Z
TLE epoch observation values (Epoch: 2026-06-07T02:32:03.659Z)
Latitude
-0.00003°
Longitude
60.45533°
Altitude
867.411 km
Speed
8.878 km/s
True Right ascension
23h 35m 55s
True Declination
0° 00' 00"
Sunlit
Object was in daylight at epoch
Visualization orbit readout
Latitude
Unknown
Longitude
Unknown
Altitude
Unknown
Speed
Unknown
Apparent Right ascension
Unknown
Apparent Declination
Unknown
Sunlit
N/A
Visualization observer readout
Local Sidereal Time
23:04:25
Azimuth
Unknown
Elevation
Unknown
Doppler factor
Unknown
Orbital elements
Apogee altitude
12,406.983 km
Perigee altitude
367.755 km
Semi-major axis
12,765.506 km
Eccentricity
0.47155
Inclination
51.7673°
RAAN
353.9839°
Arg. of periapsis
38.3792°
True anomaly
321.78769°
Mean anomaly
347.2994°
Eccentric anomaly
336.54581°
Mean motion
1.50483 °/min
Orbital period
239.23 mins
BSTAR
0.0035528
Loading maneuver chart data...
Computing Atmospheric mass density...
Loading historical data...
Loading historical data...
Loading historical data...
Loading historical data...
Loading historical data...
Loading historical data...
Loading historical data...

Documentation

Showing up to 5 results
|